Change the Weather History Date:

Thursday, June 19, 2014

  Actual Average (KTUL) Record (KTUL)
Temperature  
Mean Temperature 78 °F 79 °F  
Max Temperature 84 °F 89 °F 106 °F (1918)
Min Temperature 73 °F 69 °F 51 °F (1912)
Cooling Degree Days 14 14  
Month to date cooling degree days 213  
Year to date cooling degree days 447  
Since 1 June cooling degree days 213  
Growing Degree Days 28 (Base 50)    
Moisture  
Dew Point 71 °F    
Average Humidity 77    
Maximum Humidity 88    
Minimum Humidity 63    
Precipitation  
Precipitation 0.04 in 0.14 in 2.00 in (1905)
Month to date precipitation 3.21  
Year to date precipitation 19.71  
Sea Level Pressure  
Sea Level Pressure 30.00 in    
Wind  
Wind Speed 9 mph (South)    
Max Wind Speed 13 mph    
Max Gust Speed 17 mph    
Visibility 10 miles    
Events Rain    
T = Trace of Precipitation, MM = Missing Value Source: NWS Daily Summary

Daily Weather History Graph

Daily Weather History Graph

Search for Another Location

Airport or City:

Trip Planner

Search our weather history database for the weather conditions in past years. The results will help you decide how hot, cold, wet, or windy it might be!

Date:

Astronomy

Jun. 19, 2014 Rise Set
Actual Time 6:07 AM CDT 8:43 PM CDT
Civil Twilight 5:36 AM CDT 9:13 PM CDT
Nautical Twilight 4:59 AM CDT 9:51 PM CDT
Astronomical Twilight 4:17 AM CDT 10:33 PM CDT
Moon 12:59 AM CDT (6/19) 1:25 PM CDT (6/19)
Length of Visible Light 15h 37m
Length of Day
14h 36m
Waning Gibbous, 51% of the Moon is Illuminated
Jun 19
Waning Gibbous
Jun 19
Last Quarter
Jun 27
New
Jul 5
First Quarter
Jul 12
Full

Hourly Weather History & Observations

Time (CDT) Temp. Heat Index Dew Point Humidity Pressure Visibility Wind Dir Wind Speed Gust Speed Precip Events Conditions
12:53 AM 80.1 °F 83.6 °F 71.1 °F 74% 29.94 in 10.0 mi South 8.1 mph - N/A   Clear
2:53 AM 78.1 °F - 68.0 °F 71% 29.94 in 10.0 mi South 11.5 mph - N/A   Clear
3:53 AM 77.0 °F - 69.1 °F 76% 29.94 in 10.0 mi South 8.1 mph - N/A   Clear
5:53 AM 75.9 °F - 70.0 °F 82% 29.96 in 10.0 mi South 9.2 mph - N/A   Scattered Clouds
6:02 AM 75.2 °F - 69.8 °F 83% 29.96 in 10.0 mi South 8.1 mph - N/A   Mostly Cloudy
6:53 AM 77.0 °F - 70.0 °F 79% 29.98 in 10.0 mi South 6.9 mph - N/A   Overcast
7:21 AM 77.0 °F - 69.8 °F 78% 29.97 in 10.0 mi South 9.2 mph - N/A   Scattered Clouds
7:53 AM 78.1 °F - 71.1 °F 79% 29.99 in 10.0 mi South 6.9 mph - N/A   Scattered Clouds
8:08 AM 78.8 °F - 71.6 °F 78% 29.99 in 10.0 mi South 10.4 mph - N/A   Mostly Cloudy
8:53 AM 78.1 °F - 71.1 °F 79% 30.02 in 10.0 mi South 9.2 mph 17.3 mph N/A   Overcast
10:49 AM 78.8 °F - 71.6 °F 78% 29.99 in 10.0 mi South 10.4 mph - 0.00 in Rain Light Rain
10:53 AM 78.1 °F - 72.0 °F 81% 30.00 in 10.0 mi South 11.5 mph - 0.00 in Rain Light Rain
11:53 AM 75.9 °F - 68.0 °F 76% 30.01 in 10.0 mi South 10.4 mph 17.3 mph 0.00 in Rain Light Rain
12:53 PM 73.0 °F - 69.1 °F 87% 30.01 in 9.0 mi South 3.5 mph - 0.03 in Rain Light Rain
1:53 PM 73.9 °F - 70.0 °F 87% 30.04 in 10.0 mi South 8.1 mph - 0.01 in   Scattered Clouds
2:53 PM 80.1 °F 83.2 °F 70.0 °F 71% 30.04 in 10.0 mi South 12.7 mph - N/A   Clear
3:53 PM 84.0 °F 88.4 °F 70.0 °F 63% 30.04 in 10.0 mi SSW 12.7 mph - N/A   Clear
4:53 PM 84.9 °F 90.1 °F 71.1 °F 63% 30.03 in 10.0 mi SW 11.5 mph - N/A   Scattered Clouds
5:53 PM 84.0 °F 89.0 °F 71.1 °F 65% 30.02 in 10.0 mi SSW 10.4 mph - N/A   Clear
6:53 PM 84.0 °F 89.6 °F 72.0 °F 67% 30.00 in 10.0 mi SSW 6.9 mph - N/A   Clear
7:53 PM 82.0 °F 86.7 °F 72.0 °F 71% 30.00 in 10.0 mi South 9.2 mph - N/A   Clear
8:53 PM 80.1 °F 84.2 °F 73.0 °F 79% 30.01 in 10.0 mi SSE 5.8 mph - N/A   Clear
9:53 PM 78.1 °F - 73.0 °F 84% 30.02 in 10.0 mi South 3.5 mph - N/A   Clear
10:53 PM 77.0 °F - 73.0 °F 88% 30.02 in 10.0 mi South 4.6 mph - N/A   Clear
11:53 PM 77.0 °F - 72.0 °F 84% 30.03 in 10.0 mi South 4.6 mph - N/A   Clear